Temp
61 59 59 59 58 60 59 59 60 58 59 59 59 58 58 60 60 59 58 58 59 59 61 59 60 59 60 60 60 59 59 60 59 59 56 56 57 57 57 57 58 58 56 54 57 56 55 54 56 60 61 61 62 62 62 62 62 62 60 58 57 57 56
61 61 60 60 59 60 58 57 59 58 58 58 58 58 57 59 61 59 58 57 58 59 60 59 58 59 59 59 58 58 58 57 58 58 58 57 55 56 56 55 57 55 56 56 55 55 55 56 55 57 57 60 61 61 61 62 61 60 59 58 58 56 55
61 60 60 59 58 58 58 56 57 58 58 58 58 57 57 57 58 59 58 58 58 59 60 58 57 58 57 57 57 58 57 58 57 59 59 56 56 56 56 56 55 55 56 55 53 56 57 57 55 56 57 57 56 58 60 60 60 59 57 55 54 54 53
60 60 58 57 56 57 58 56 57 56 57 57 57 57 57 57 58 59 59 58 59 59 59 58 58 58 57 57 57 57 57 58 57 57 56 55 55 55 55 56 56 58 55 52 54 54 55 55 56 56 57 59 58 57 58 60 59 57 56 54 53 53 52
61 60 59 57 57 57 56 56 55 56 56 57 56 56 56 57 59 58 58 58 58 57 57 56 56 57 56 56 56 56 56 55 57 58 56 55 54 54 54 55 55 55 53 56 57 56 56 57 57 56 56 58 58 58 59 57 56 56 55 54 54 52 52
62 61 59 57 57 57 56 56 56 57 55 58 56 57 56 56 58 58 58 58 56 56 56 57 56 56 56 56 55 55 54 55 55 56 56 54 55 56 55 54 55 55 55 56 57 56 56 58 58 56 56 57 54 55 56 53 53 55 55 55 54 54 54
61 61 59 59 58 58 58 58 58 57 57 57 56 56 56 56 56 57 57 55 55 55 56 55 55 56 55 56 55 54 54 53 54 54 54 53 53 53 54 55 54 55 55 57 57 58 57 57 56 56 54 55 56 55 54 52 55 52 55 54 54 54 53
60 59 58 60 60 59 58 58 58 57 57 57 57 56 56 55 55 55 56 56 55 55 55 56 56 54 55 55 54 54 54 54 55 55 54 55 56 54 54 54 55 55 56 56 57 58 59 58 57 56 56 53 52 50 49 51 49 49 51 53 54 54 52
60 59 59 59 60 61 58 58 57 56 57 55 55 56 56 56 56 56 55 55 54 54 54 54 54 54 54 55 54 55 55 56 56 55 53 54 54 52 53 54 56 55 57 57 58 58 58 58 57 56 56 56 53 48 48 49 47 49 53 52 54 53 53
59 59 59 59 60 59 58 57 57 56 56 56 57 55 55 54 55 55 56 54 54 54 53 54 53 52 53 54 55 54 55 53 55 53 52 54 51 52 53 53 54 54 54 57 58 58 57 57 57 56 58 56 55 52 46 45 46 46 52 50 51 53 52
60 60 60 59 59 59 56 57 56 57 57 57 57 57 55 55 56 57 54 53 53 53 53 52 52 51 52 52 52 52 52 52 54 52 52 52 51 52 52 53 53 55 53 56 57 57 57 57 57 57 56 53 55 55 47 47 48 46 50 51 47 52 51
59 59 59 59 59 59 59 58 57 57 55 55 57 55 54 54 53 52 53 52 53 53 52 52 52 51 52 52 53 52 52 52 53 52 51 52 52 53 53 53 51 52 53 54 54 55 55 56 56 57 55 55 54 52 53 49 47 49 50 53 51 49 53
60 61 60 60 60 60 61 59 56 55 56 56 54 55 55 54 54 53 53 53 53 52 52 52 51 51 51 51 51 54 51 52 53 51 51 51 54 52 53 53 50 52 53 53 53 53 54 55 56 56 57 56 54 52 53 51 49 52 49 51 48 50 52
59 59 59 60 60 60 60 59 58 58 56 55 53 54 54 54 54 54 53 54 53 52 52 53 52 51 52 52 51 50 51 51 53 51 51 52 51 52 53 52 51 51 52 53 51 51 52 52 54 57 57 55 54 53 54 50 49 48 52 46 47 51 51
59 58 58 59 60 60 59 58 57 56 55 54 54 54 53 54 54 54 54 54 54 53 53 53 52 51 52 52 52 52 51 50 51 51 50 51 51 53 51 53 52 51 50 51 50 53 52 53 53 55 54 56 55 53 54 50 47 48 52 51 53 50 51
59 58 58 58 59 59 58 58 57 58 56 54 54 55 54 54 54 54 54 54 54 54 54 53 52 53 52 52 53 53 52 51 51 52 52 52 53 51 52 52 50 51 53 51 49 49 50 52 53 54 53 54 55 54 54 51 48 49 50 50 49 50 50
59 59 59 59 60 60 59 59 58 58 56 55 56 54 54 54 54 53 55 54 54 55 54 54 53 53 53 51 52 52 52 52 51 51 51 52 52 51 51 52 51 50 51 51 49 50 50 50 50 52 52 52 52 53 51 51 54 45 45 52 48 53 51
57 58 59 59 60 60 59 59 59 59 57 56 55 54 54 54 54 54 56 54 54 53 53 53 54 54 53 52 51 51 51 51 51 51 51 51 55 51 51 52 52 49 50 51 50 50 50 51 51 52 52 51 53 51 51 50 49 47 51 52 50 49 48
57 57 58 59 60 60 60 60 60 59 59 58 54 55 55 54 55 53 53 53 53 53 53 53 53 53 52 52 52 52 51 51 51 51 51 51 53 50 52 51 51 49 50 52 51 50 50 50 50 50 50 50 51 50 50 49 49 50 52 50 52 50 49
57 56 56 57 58 59 60 60 60 60 59 59 57 56 55 55 55 55 54 54 54 54 53 53 53 52 52 52 52 51 51 51 52 51 51 52 53 52 51 51 51 50 50 50 50 50 49 50 50 48 49 49 49 50 49 48 49 51 50 49 49 48 49
58 57 56 56 58 58 59 58 59 59 58 57 58 57 57 56 55 55 54 54 54 53 53 53 53 52 52 53 53 51 51 52 52 53 53 53 53 52 52 52 51 51 51 51 51 49 50 50 48 49 47 48 48 49 48 48 49 49 48 49 48 47 44
58 57 57 57 56 56 56 56 56 57 56 56 57 57 57 57 55 54 54 55 55 55 55 56 56 55 54 53 52 53 53 53 53 53 53 53 53 53 52 52 51 50 53 57 54 53 53 54 53 51 48 47 47 48 47 48 50 48 48 50 47 43 45
56 57 57 56 55 54 56 57 57 56 55 54 54 55 55 56 57 57 57 56 55 56 57 56 57 55 55 57 54 56 54 54 54 53 53 52 52 52 52 51 51 59 57 55 52 49 48 50 54 55 51 48 49 48 47 47 47 49 50 49 47 46 47
56 56 56 55 54 56 56 56 55 55 53 53 53 54 54 54 54 55 56 56 56 56 57 58 53 49 48 51 57 55 55 54 54 54 54 54 54 54 52 52 51 55 55 55 52 47 46 46 47 49 49 50 52 52 49 48 47 47 49 50 47 46 45
56 55 55 54 54 54 55 55 55 55 54 53 52 52 52 51 52 51 52 52 54 55 56 55 49 47 47 47 51 57 55 55 54 54 54 54 55 53 54 53 52 52 51 52 51 50 48 46 45 45 44 45 46 48 49 53 50 46 45 48 46 47 46
54 54 54 54 54 54 54 54 53 54 53 52 52 52 50 51 50 51 52 52 51 52 52 49 44 45 46 46 47 53 55 55 55 54 54 54 54 53 52 52 53 52 53 57 55 49 49 48 46 44 44 43 44 44 44 44 46 52 51 50 48 44 45
52 52 53 53 53 53 53 52 51 51 52 51 51 50 50 50 50 50 51 52 51 51 51 48 42 42 43 43 43 47 54 54 55 55 54 54 54 53 53 53 53 52 52 53 52 49 48 47 46 46 46 46 45 44 42 42 44 46 49 52 50 49 45
50 50 51 51 51 50 50 50 52 50 49 49 50 49 49 49 49 49 50 52 51 52 54 48 42 41 41 40 40 41 52 52 52 53 53 53 54 54 54 54 53 53 53 53 53 50 49 48 47 48 46 45 44 44 45 45 46 47 48 48 50 49 47
48 48 48 49 49 49 48 48 48 48 48 48 48 48 48 48 47 49 50 49 49 51 52 44 41 41 41 40 40 46 50 52 52 52 52 52 52 53 53 53 52 52 52 53 51 45 48 48 48 48 46 42 42 43 42 43 40 42 46 47 48 48 47
47 47 47 47 47 46 46 47 47 47 47 47 47 47 48 48 48 48 49 49 49 50 51 47 41 41 41 40 41 47 50 51 51 52 52 52 52 52 52 52 52 51 52 52 49 43 44 46 49 49 46 44 43 43 42 42 42 41 42 42 43 43 43
46 46 46 46 45 45 45 45 46 47 46 46 47 47 47 47 48 48 47 49 49 48 50 49 44 42 41 40 43 49 50 51 51 51 52 51 51 50 51 53 54 52 51 52 46 42 42 46 49 47 46 45 44 43 42 42 43 43 41 41 41 40 40
46 46 45 45 45 45 45 45 45 45 45 45 45 45 47 47 47 47 47 47 51 50 49 49 46 42 41 41 42 47 50 50 50 51 51 51 50 50 49 50 50 51 52 50 45 42 41 46 49 47 47 46 45 43 43 41 43 42 43 44 43 44 41
46 46 44 44 44 45 45 45 45 45 45 45 45 44 45 45 44 45 45 45 46 46 47 48 48 43 42 41 40 45 50 49 50 51 50 51 51 50 49 47 46 42 42 43 43 41 41 43 49 48 48 47 45 43 43 41 43 43 43 43 40 39 39
45 45 45 45 45 45 45 45 44 44 44 44 44 44 44 43 43 43 44 44 44 45 47 46 47 44 42 41 40 41 49 50 51 51 50 49 49 50 50 49 47 45 42 41 42 41 40 41 45 48 48 46 47 48 43 42 43 43 42 41 41 40 39
45 45 45 45 44 44 45 45 45 44 44 44 43 43 42 42 42 41 42 43 44 44 47 47 44 42 42 41 39 39 45 50 51 51 48 48 48 48 49 50 48 46 42 41 41 41 40 41 43 48 48 44 42 40 44 44 43 42 42 41 39 39 39
42 44 43 43 42 42 43 43 43 43 43 43 42 41 41 41 41 41 42 43 44 45 45 46 42 41 40 40 40 39 40 43 43 48 50 50 48 48 46 46 47 45 41 40 40 41 40 41 43 45 42 41 39 41 43 43 42 41 39 39 39 38 37
41 41 42 41 41 40 40 40 41 40 39 39 39 38 38 39 40 39 39 40 42 42 43 42 42 40 39 39 38 38 38 38 38 43 45 48 48 46 45 44 43 41 40 40 40 40 40 41 44 42 41 40 40 42 44 42 40 40 38 38 38 38 38
MSLP
1017.07 1017.34 1017.47 1017.62 1017.71 1017.74 1017.91 1018.07 1018.07 1018.15 1018.18 1018.15 1018.10 1018.18 1018.22 1018.22 1018.39 1018.59 1018.66 1018.74 1018.78 1018.83 1018.83 1018.86 1018.98 1019.18 1019.39 1019.51 1019.59 1019.62 1019.71 1019.71 1019.71 1019.86 1020.10 1020.15 1020.30 1020.62 1020.66 1020.54 1020.66 1020.83 1020.98 1020.95 1021.22 1021.59 1022.39 1022.98 1023.22 1023.03 1023.03 1023.07 1023.10 1023.07 1023.07 1023.10 1023.15 1023.18 1023.34 1023.42 1023.47 1023.47 1023.54
1016.98 1017.22 1017.47 1017.62 1017.78 1017.86 1018.07 1018.18 1018.22 1018.34 1018.39 1018.42 1018.34 1018.27 1018.22 1018.22 1018.34 1018.51 1018.62 1018.71 1018.71 1018.78 1018.83 1018.91 1019.03 1019.18 1019.27 1019.47 1019.62 1019.71 1019.74 1019.83 1019.71 1019.71 1019.83 1019.98 1020.15 1020.27 1020.66 1021.03 1020.91 1021.07 1021.22 1021.39 1021.54 1021.59 1022.27 1022.86 1023.27 1023.30 1023.42 1023.30 1023.27 1023.27 1023.27 1023.30 1023.42 1023.54 1023.62 1023.71 1023.71 1023.74 1023.78
1017.18 1017.42 1017.51 1017.78 1017.95 1018.03 1018.15 1018.30 1018.34 1018.42 1018.47 1018.42 1018.42 1018.39 1018.34 1018.34 1018.39 1018.47 1018.54 1018.59 1018.71 1018.78 1018.91 1018.98 1019.07 1019.18 1019.30 1019.39 1019.47 1019.54 1019.66 1019.74 1019.83 1019.74 1019.71 1019.83 1019.91 1020.15 1020.42 1020.66 1021.03 1021.30 1021.34 1021.59 1021.78 1021.91 1022.18 1022.30 1022.86 1023.27 1023.39 1023.59 1023.66 1023.62 1023.59 1023.71 1023.83 1023.95 1023.98 1024.03 1024.06 1024.06 1024.10
1017.30 1017.42 1017.74 1018.03 1018.18 1018.22 1018.30 1018.47 1018.47 1018.54 1018.54 1018.59 1018.54 1018.54 1018.54 1018.51 1018.51 1018.54 1018.62 1018.74 1018.83 1018.91 1019.03 1019.10 1019.15 1019.27 1019.34 1019.34 1019.47 1019.51 1019.54 1019.59 1019.74 1019.83 1019.91 1019.95 1019.95 1020.07 1020.30 1020.47 1020.66 1020.83 1020.98 1021.30 1021.66 1021.78 1021.95 1022.59 1022.98 1023.27 1023.42 1023.42 1023.54 1023.78 1024.03 1023.95 1024.06 1024.15 1024.19 1024.22 1024.22 1024.31 1024.34
1017.27 1017.54 1017.83 1018.18 1018.30 1018.34 1018.47 1018.59 1018.62 1018.62 1018.74 1018.74 1018.71 1018.71 1018.71 1018.66 1018.62 1018.78 1018.83 1018.91 1019.03 1019.10 1019.18 1019.27 1019.34 1019.39 1019.42 1019.42 1019.47 1019.51 1019.59 1019.62 1019.66 1019.74 1019.86 1019.95 1019.98 1020.07 1020.18 1020.34 1020.59 1020.86 1020.91 1020.86 1021.22 1021.47 1021.86 1022.34 1022.47 1023.10 1023.34 1023.47 1023.71 1023.91 1024.03 1024.03 1024.06 1024.15 1024.27 1024.39 1024.46 1024.51 1024.51
1017.22 1017.59 1017.95 1018.30 1018.47 1018.47 1018.59 1018.66 1018.66 1018.74 1018.86 1018.86 1018.86 1018.78 1018.83 1018.78 1018.78 1018.86 1018.98 1019.07 1019.18 1019.27 1019.30 1019.34 1019.47 1019.51 1019.54 1019.54 1019.59 1019.62 1019.66 1019.62 1019.66 1019.71 1019.83 1019.91 1019.95 1019.95 1020.03 1020.30 1020.42 1020.71 1020.86 1020.86 1021.15 1021.62 1021.98 1022.18 1022.47 1022.98 1023.42 1023.42 1023.74 1024.10 1024.06 1023.98 1024.19 1024.22 1024.22 1024.39 1024.43 1024.51 1024.51
1017.39 1017.66 1018.03 1018.27 1018.51 1018.47 1018.51 1018.54 1018.59 1018.66 1018.74 1018.74 1018.86 1018.83 1018.86 1018.86 1018.91 1018.98 1019.07 1019.22 1019.30 1019.39 1019.39 1019.47 1019.54 1019.59 1019.59 1019.62 1019.66 1019.62 1019.66 1019.83 1019.78 1019.78 1019.86 1020.03 1020.07 1020.03 1020.10 1020.10 1020.30 1020.59 1020.78 1020.86 1021.15 1021.51 1021.95 1022.34 1022.74 1022.83 1023.34 1023.78 1023.86 1024.03 1024.06 1024.03 1024.10 1024.22 1024.31 1024.34 1024.43 1024.46 1024.51
1017.47 1017.78 1018.07 1018.22 1018.42 1018.54 1018.59 1018.59 1018.66 1018.66 1018.62 1018.83 1018.74 1018.83 1018.86 1018.91 1019.03 1019.18 1019.22 1019.34 1019.42 1019.47 1019.47 1019.54 1019.62 1019.66 1019.66 1019.66 1019.74 1019.78 1019.86 1019.91 1019.86 1019.95 1020.07 1019.98 1020.07 1020.10 1020.10 1020.03 1020.27 1020.54 1020.71 1020.91 1021.10 1021.42 1021.59 1021.83 1022.07 1022.51 1022.71 1023.59 1024.10 1024.10 1024.10 1024.10 1024.22 1024.19 1024.31 1024.43 1024.39 1024.43 1024.55
1017.47 1017.74 1018.10 1018.30 1018.39 1018.39 1018.59 1018.54 1018.66 1018.62 1018.66 1018.83 1018.91 1018.91 1018.98 1018.95 1019.10 1019.30 1019.42 1019.51 1019.59 1019.59 1019.59 1019.59 1019.66 1019.71 1019.74 1019.74 1019.83 1019.78 1019.91 1020.03 1019.91 1019.98 1020.15 1020.15 1020.22 1020.30 1020.27 1020.34 1020.39 1020.59 1020.74 1020.91 1021.10 1021.30 1021.47 1021.66 1021.91 1022.15 1022.22 1022.42 1023.22 1024.34 1024.31 1024.31 1024.31 1024.31 1024.27 1024.34 1024.43 1024.43 1024.51
1017.47 1017.74 1018.10 1018.30 1018.39 1018.47 1018.47 1018.54 1018.54 1018.66 1018.74 1018.78 1018.86 1018.95 1019.07 1019.18 1019.27 1019.34 1019.54 1019.66 1019.71 1019.66 1019.66 1019.74 1019.78 1019.86 1019.86 1019.86 1019.95 1019.95 1020.03 1020.22 1020.10 1020.18 1020.27 1020.18 1020.39 1020.39 1020.42 1020.47 1020.42 1020.59 1020.74 1020.86 1021.07 1021.22 1021.42 1021.66 1021.86 1021.95 1021.98 1022.15 1022.39 1023.34 1024.34 1024.51 1024.34 1024.31 1024.22 1024.22 1024.34 1024.34 1024.43
1017.47 1017.78 1018.03 1018.22 1018.39 1018.42 1018.51 1018.54 1018.71 1018.78 1018.78 1018.86 1018.91 1019.03 1019.10 1019.22 1019.39 1019.51 1019.66 1019.78 1019.83 1019.83 1019.83 1019.95 1019.95 1019.98 1020.03 1020.10 1020.18 1020.22 1020.34 1020.39 1020.27 1020.42 1020.42 1020.34 1020.42 1020.51 1020.54 1020.54 1020.54 1020.59 1020.78 1020.86 1021.07 1021.22 1021.42 1021.59 1021.83 1021.95 1022.10 1022.30 1022.30 1022.42 1023.22 1023.74 1024.06 1024.19 1024.03 1024.15 1024.19 1024.10 1024.46
1017.54 1017.78 1017.98 1018.10 1018.27 1018.34 1018.39 1018.51 1018.59 1018.74 1018.95 1019.03 1019.07 1019.15 1019.22 1019.30 1019.47 1019.66 1019.71 1019.83 1019.95 1019.95 1020.03 1020.03 1020.07 1020.10 1020.15 1020.18 1020.30 1020.39 1020.47 1020.39 1020.22 1020.42 1020.59 1020.51 1020.59 1020.59 1020.54 1020.62 1020.74 1020.71 1020.83 1020.91 1021.18 1021.42 1021.59 1021.71 1021.83 1021.95 1022.10 1022.22 1022.47 1022.51 1022.59 1023.18 1023.91 1023.86 1023.98 1023.91 1023.95 1024.10 1024.10
1017.54 1017.66 1017.83 1017.98 1018.22 1018.27 1018.22 1018.39 1018.74 1018.95 1019.03 1019.18 1019.22 1019.27 1019.34 1019.39 1019.51 1019.62 1019.78 1019.86 1019.98 1020.10 1020.07 1020.15 1020.18 1020.22 1020.30 1020.39 1020.47 1020.51 1020.62 1020.51 1020.39 1020.51 1020.66 1020.78 1020.78 1020.83 1020.74 1020.86 1020.98 1020.91 1020.95 1020.98 1021.15 1021.34 1021.54 1021.74 1021.83 1021.95 1022.07 1022.18 1022.39 1022.62 1022.59 1022.66 1022.91 1023.27 1023.74 1023.62 1023.74 1023.91 1024.03
1017.47 1017.66 1017.86 1017.98 1018.03 1018.18 1018.18 1018.34 1018.71 1018.91 1019.18 1019.30 1019.39 1019.34 1019.42 1019.47 1019.54 1019.62 1019.74 1019.86 1019.95 1020.07 1020.15 1020.22 1020.34 1020.39 1020.42 1020.54 1020.74 1020.78 1020.78 1020.71 1020.62 1020.83 1020.83 1020.91 1020.98 1020.95 1020.95 1020.98 1021.10 1021.22 1021.30 1021.18 1021.42 1021.54 1021.59 1021.74 1021.86 1021.86 1021.98 1022.15 1022.42 1022.62 1022.59 1022.74 1022.86 1023.34 1023.66 1024.06 1023.78 1023.78 1024.06
1017.59 1017.86 1018.07 1018.18 1018.22 1018.18 1018.22 1018.34 1018.71 1019.03 1019.18 1019.30 1019.34 1019.34 1019.47 1019.62 1019.71 1019.78 1019.86 1019.98 1020.07 1020.15 1020.18 1020.30 1020.51 1020.59 1020.62 1020.78 1020.91 1020.98 1020.98 1020.91 1020.91 1021.07 1021.07 1021.07 1021.10 1021.10 1021.10 1021.10 1021.22 1021.30 1021.34 1021.34 1021.51 1021.62 1021.66 1021.74 1021.91 1021.95 1022.07 1022.15 1022.27 1022.51 1022.51 1022.59 1023.22 1023.27 1023.42 1023.71 1023.74 1024.03 1024.03
1017.62 1018.07 1018.30 1018.42 1018.34 1018.30 1018.22 1018.39 1018.74 1019.03 1019.18 1019.27 1019.30 1019.22 1019.39 1019.54 1019.74 1019.91 1020.03 1020.10 1020.18 1020.18 1020.27 1020.39 1020.59 1020.66 1020.78 1020.86 1020.95 1021.03 1021.10 1021.03 1021.03 1021.15 1021.18 1021.22 1021.22 1021.22 1021.18 1021.30 1021.34 1021.34 1021.39 1021.34 1021.54 1021.59 1021.66 1021.71 1021.83 1021.95 1022.03 1022.15 1022.15 1022.27 1022.42 1022.34 1022.78 1023.22 1023.39 1023.51 1023.78 1023.83 1023.98
1018.03 1018.18 1018.30 1018.34 1018.15 1018.22 1018.30 1018.47 1018.83 1019.07 1019.15 1019.22 1019.18 1019.27 1019.30 1019.42 1019.66 1019.83 1019.98 1020.15 1020.15 1020.22 1020.34 1020.51 1020.59 1020.71 1020.78 1020.86 1020.98 1021.03 1021.10 1021.15 1021.15 1021.15 1021.15 1021.22 1021.22 1021.15 1021.15 1021.22 1021.34 1021.30 1021.27 1021.30 1021.51 1021.51 1021.59 1021.62 1021.71 1021.78 1021.95 1022.07 1022.27 1022.42 1022.42 1022.39 1022.42 1022.71 1023.39 1023.42 1023.74 1023.62 1023.86
1018.10 1018.30 1018.22 1018.34 1018.07 1018.27 1018.47 1018.59 1018.83 1019.03 1019.18 1019.22 1019.15 1019.18 1019.34 1019.39 1019.59 1019.83 1019.98 1020.10 1020.15 1020.27 1020.39 1020.54 1020.62 1020.71 1020.86 1020.98 1020.98 1021.07 1021.10 1021.18 1021.18 1021.18 1021.15 1021.10 1021.15 1021.07 1020.98 1020.98 1021.22 1021.34 1021.30 1021.34 1021.54 1021.54 1021.62 1021.59 1021.71 1021.71 1021.78 1021.95 1022.03 1022.30 1022.39 1022.34 1022.47 1022.59 1022.91 1023.22 1023.47 1023.78 1023.91
1018.27 1018.27 1018.27 1018.27 1018.15 1018.27 1018.42 1018.54 1018.74 1018.98 1019.03 1019.10 1019.22 1019.18 1019.27 1019.51 1019.59 1019.83 1019.95 1020.07 1020.07 1020.15 1020.34 1020.51 1020.59 1020.62 1020.71 1020.86 1020.98 1021.10 1021.15 1021.22 1021.22 1021.22 1021.27 1021.27 1021.18 1021.10 1021.03 1021.10 1021.34 1021.47 1021.47 1021.47 1021.62 1021.74 1021.83 1021.71 1021.83 1021.78 1021.83 1021.95 1022.07 1022.15 1022.22 1022.34 1022.47 1022.62 1022.78 1023.03 1023.18 1023.51 1023.78
1018.07 1018.34 1018.34 1018.51 1018.54 1018.59 1018.54 1018.59 1018.78 1018.91 1019.03 1019.07 1019.18 1019.27 1019.39 1019.47 1019.62 1019.71 1019.86 1020.03 1020.10 1020.15 1020.27 1020.42 1020.54 1020.62 1020.66 1020.74 1020.86 1021.03 1021.15 1021.30 1021.34 1021.39 1021.42 1021.42 1021.30 1021.22 1021.27 1021.34 1021.39 1021.47 1021.51 1021.59 1021.62 1021.66 1021.74 1021.86 1021.91 1021.91 1021.95 1021.98 1022.15 1022.15 1022.22 1022.34 1022.47 1022.66 1022.91 1023.10 1023.47 1023.51 1023.59
1017.86 1018.30 1018.51 1018.62 1018.86 1018.95 1018.91 1018.86 1018.83 1018.91 1019.07 1019.18 1019.18 1019.27 1019.39 1019.51 1019.62 1019.74 1019.83 1019.91 1020.07 1020.22 1020.27 1020.34 1020.54 1020.62 1020.62 1020.66 1020.83 1020.98 1021.10 1021.18 1021.27 1021.39 1021.42 1021.39 1021.34 1021.22 1021.30 1021.47 1021.51 1021.51 1021.47 1021.54 1021.62 1021.74 1021.78 1021.71 1021.98 1021.95 1022.30 1022.18 1022.18 1022.18 1022.22 1022.39 1022.54 1022.71 1022.95 1023.10 1023.22 1023.39 1023.74
1017.95 1018.18 1018.54 1018.78 1019.03 1019.10 1019.15 1019.22 1019.15 1019.15 1019.22 1019.27 1019.27 1019.22 1019.30 1019.47 1019.71 1019.86 1019.95 1019.98 1020.03 1020.22 1020.34 1020.30 1020.39 1020.51 1020.59 1020.71 1020.83 1020.91 1021.07 1021.18 1021.30 1021.30 1021.30 1021.34 1021.34 1021.34 1021.34 1021.47 1021.59 1021.59 1021.59 1021.51 1021.62 1021.66 1021.66 1021.71 1021.71 1021.86 1022.15 1022.27 1022.18 1022.22 1022.39 1022.47 1022.51 1022.66 1022.91 1023.07 1023.30 1023.66 1023.62
1018.27 1018.10 1018.54 1018.98 1019.15 1019.15 1019.07 1019.03 1018.91 1018.95 1019.10 1019.18 1019.18 1019.22 1019.30 1019.47 1019.59 1019.71 1019.91 1020.03 1020.15 1020.27 1020.30 1020.34 1020.30 1020.34 1020.42 1020.47 1020.71 1020.83 1021.03 1021.10 1021.18 1021.22 1021.22 1021.30 1021.39 1021.42 1021.42 1021.47 1021.59 1021.59 1021.54 1021.54 1021.54 1021.66 1021.78 1021.83 1021.78 1021.66 1021.74 1022.10 1022.10 1022.18 1022.27 1022.39 1022.51 1022.59 1022.74 1022.91 1023.07 1023.34 1023.51
1018.54 1018.51 1018.62 1018.91 1018.98 1018.95 1018.95 1018.98 1019.15 1019.30 1019.30 1019.34 1019.30 1019.27 1019.27 1019.42 1019.59 1019.71 1019.78 1019.95 1020.10 1020.22 1020.22 1020.22 1020.22 1020.30 1020.39 1020.47 1020.62 1020.83 1020.95 1021.07 1021.18 1021.22 1021.27 1021.27 1021.34 1021.39 1021.42 1021.47 1021.54 1021.59 1021.59 1021.59 1021.59 1021.59 1021.71 1021.74 1021.74 1021.83 1021.91 1021.95 1021.95 1021.91 1022.15 1022.30 1022.30 1022.54 1022.54 1022.62 1023.10 1023.30 1023.22
1019.03 1019.10 1019.15 1019.34 1019.39 1019.27 1019.10 1019.18 1019.30 1019.34 1019.27 1019.34 1019.51 1019.51 1019.47 1019.47 1019.59 1019.66 1019.74 1019.91 1019.98 1020.07 1020.10 1020.07 1020.15 1020.22 1020.34 1020.42 1020.59 1020.71 1020.86 1021.03 1021.18 1021.27 1021.27 1021.27 1021.27 1021.34 1021.27 1021.27 1021.34 1021.51 1021.51 1021.51 1021.51 1021.54 1021.62 1021.74 1021.86 1021.91 1021.91 1021.95 1021.98 1022.07 1021.98 1021.91 1022.18 1022.71 1022.66 1022.62 1022.95 1022.98 1023.15
1019.59 1019.78 1019.83 1019.74 1019.74 1019.78 1019.74 1019.78 1019.91 1019.95 1019.98 1019.83 1019.54 1019.51 1019.66 1019.71 1019.78 1019.86 1019.74 1019.78 1019.95 1020.15 1020.22 1020.34 1020.42 1020.39 1020.30 1020.34 1020.51 1020.62 1020.78 1020.91 1021.07 1021.15 1021.18 1021.22 1021.27 1021.30 1021.34 1021.30 1021.30 1021.39 1021.39 1021.39 1021.42 1021.54 1021.54 1021.59 1021.86 1021.95 1021.95 1021.95 1022.10 1022.10 1022.10 1022.18 1022.15 1021.95 1022.15 1022.34 1022.47 1023.15 1023.30
1019.95 1020.03 1020.07 1020.07 1020.10 1020.15 1020.18 1020.27 1020.15 1020.18 1020.30 1020.27 1020.10 1019.98 1019.95 1019.86 1019.86 1019.86 1019.91 1019.98 1019.98 1020.07 1020.03 1020.15 1020.34 1020.59 1020.71 1020.74 1020.83 1020.86 1020.74 1020.86 1020.91 1020.98 1021.07 1021.07 1021.15 1021.18 1021.22 1021.27 1021.27 1021.27 1021.30 1021.34 1021.42 1021.54 1021.62 1021.66 1021.74 1021.78 1021.78 1021.95 1022.07 1022.27 1022.34 1022.30 1022.15 1022.18 1022.22 1022.10 1022.30 1022.42 1023.39
1020.42 1020.47 1020.42 1020.39 1020.47 1020.62 1020.71 1020.78 1020.71 1020.74 1020.51 1020.39 1020.34 1020.22 1020.15 1020.10 1020.10 1020.07 1019.98 1019.98 1020.03 1020.07 1020.03 1020.07 1020.15 1020.34 1020.54 1020.66 1020.91 1021.22 1021.07 1021.03 1021.07 1021.15 1021.18 1021.18 1021.15 1021.03 1020.98 1021.10 1021.10 1021.03 1021.07 1021.15 1021.22 1021.39 1021.54 1021.62 1021.71 1021.66 1021.86 1022.15 1022.34 1022.51 1022.42 1022.30 1022.30 1022.30 1022.30 1022.39 1022.27 1022.42 1023.07
1020.95 1020.95 1020.86 1020.83 1020.91 1021.07 1021.18 1021.30 1021.18 1020.98 1020.98 1020.95 1020.86 1020.71 1020.59 1020.51 1020.34 1020.27 1020.22 1020.27 1020.30 1020.22 1020.18 1020.34 1020.27 1020.27 1020.39 1020.47 1020.74 1020.86 1020.91 1020.83 1020.83 1020.91 1021.03 1021.10 1021.10 1021.07 1021.07 1021.10 1021.15 1021.10 1021.07 1021.03 1020.98 1021.27 1021.39 1021.62 1021.71 1021.62 1021.95 1022.39 1022.51 1022.54 1022.54 1023.03 1023.03 1022.62 1022.42 1022.30 1022.42 1022.59 1023.03
1021.27 1021.27 1021.27 1021.22 1021.34 1021.42 1021.47 1021.47 1021.47 1021.42 1021.15 1021.07 1020.91 1020.78 1020.74 1020.66 1020.59 1020.39 1020.34 1020.51 1020.62 1020.59 1020.51 1020.62 1020.86 1020.83 1020.59 1020.66 1020.98 1020.86 1020.83 1020.74 1020.71 1020.66 1020.62 1020.74 1020.83 1020.91 1020.95 1020.98 1021.03 1020.98 1020.95 1020.91 1020.86 1021.10 1021.39 1021.59 1021.66 1021.74 1022.07 1022.27 1022.47 1022.42 1022.74 1023.15 1023.39 1023.18 1022.74 1022.66 1022.71 1022.86 1023.15
1021.62 1021.62 1021.62 1021.74 1021.86 1021.91 1021.86 1021.74 1021.78 1021.62 1021.39 1021.27 1021.15 1021.22 1021.10 1020.86 1020.71 1020.59 1020.59 1020.62 1020.66 1020.74 1020.62 1020.71 1020.66 1020.59 1020.83 1021.22 1021.15 1020.71 1020.66 1020.74 1020.62 1020.66 1020.62 1020.66 1020.78 1020.78 1020.78 1020.74 1020.74 1020.74 1020.74 1020.71 1020.74 1020.98 1021.27 1021.51 1021.66 1021.91 1022.07 1022.30 1022.47 1022.59 1023.10 1023.47 1023.71 1023.91 1023.54 1023.10 1023.18 1023.42 1023.66
1022.10 1022.07 1022.07 1022.18 1022.18 1022.10 1022.03 1022.03 1022.03 1021.95 1021.86 1021.78 1021.78 1021.66 1021.47 1021.30 1021.27 1021.18 1021.15 1021.10 1021.03 1021.03 1020.95 1020.71 1020.62 1020.62 1020.66 1020.83 1021.27 1021.22 1020.86 1020.74 1020.71 1020.66 1020.66 1020.54 1020.54 1020.62 1020.62 1020.62 1020.62 1020.54 1020.51 1020.47 1020.62 1020.78 1021.10 1021.34 1021.51 1021.74 1021.86 1022.10 1022.30 1022.47 1022.78 1023.10 1023.07 1023.51 1023.54 1023.30 1023.47 1023.59 1023.91
1022.62 1022.66 1022.74 1022.66 1022.54 1022.51 1022.42 1022.30 1022.27 1022.22 1022.18 1022.15 1022.07 1021.95 1021.74 1021.59 1021.51 1021.54 1021.51 1021.47 1021.42 1021.30 1021.18 1020.98 1020.91 1020.78 1020.78 1020.86 1021.10 1021.42 1021.30 1021.15 1020.74 1020.42 1020.47 1020.51 1020.39 1020.30 1020.34 1020.34 1020.39 1020.34 1020.34 1020.34 1020.42 1020.54 1020.86 1021.15 1021.15 1021.47 1021.59 1021.54 1021.78 1022.10 1022.86 1023.18 1023.18 1023.34 1023.34 1023.27 1023.59 1023.86 1024.15
1022.91 1022.95 1022.95 1022.91 1022.78 1022.71 1022.59 1022.54 1022.47 1022.34 1022.34 1022.27 1022.18 1022.15 1022.15 1022.15 1022.03 1021.98 1021.91 1021.83 1021.71 1021.54 1021.42 1021.22 1020.98 1021.03 1020.98 1021.03 1021.18 1021.59 1021.34 1021.10 1020.78 1020.54 1020.42 1020.51 1020.51 1020.27 1020.07 1019.98 1019.95 1020.03 1020.07 1020.07 1020.18 1020.34 1020.71 1020.98 1020.83 1020.95 1021.07 1021.15 1021.07 1021.10 1022.34 1022.83 1022.98 1022.91 1023.07 1023.42 1023.86 1024.10 1024.34
1022.91 1022.91 1022.91 1022.78 1022.66 1022.71 1022.74 1022.62 1022.54 1022.54 1022.51 1022.42 1022.42 1022.51 1022.59 1022.59 1022.54 1022.42 1022.30 1022.10 1021.95 1021.74 1021.54 1021.51 1021.34 1021.03 1021.18 1021.18 1021.34 1021.54 1021.59 1021.15 1020.91 1020.86 1020.71 1020.54 1020.42 1020.34 1020.03 1019.74 1019.71 1019.66 1019.83 1019.86 1019.95 1020.18 1020.47 1020.62 1020.59 1020.59 1020.71 1020.71 1021.10 1021.51 1022.03 1022.47 1022.86 1023.10 1023.27 1023.59 1023.98 1024.15 1024.43
1023.07 1023.03 1022.98 1022.91 1022.86 1022.86 1022.78 1022.66 1022.66 1022.66 1022.62 1022.54 1022.54 1022.59 1022.59 1022.62 1022.54 1022.47 1022.34 1022.27 1022.15 1021.98 1021.86 1021.66 1021.66 1021.42 1021.18 1021.27 1021.27 1021.39 1021.39 1021.27 1021.15 1021.15 1020.83 1020.51 1020.30 1020.15 1020.07 1020.07 1019.83 1019.66 1019.83 1019.86 1019.86 1019.91 1019.98 1020.15 1020.34 1020.54 1020.86 1021.07 1021.18 1021.54 1022.07 1022.59 1022.86 1023.07 1023.30 1023.54 1023.74 1024.06 1024.58
1023.18 1023.18 1023.15 1023.10 1023.03 1023.07 1023.03 1023.07 1023.07 1023.10 1023.18 1023.15 1023.15 1023.15 1023.18 1023.15 1023.03 1022.98 1022.95 1022.74 1022.54 1022.39 1022.22 1022.07 1021.83 1021.78 1021.59 1021.39 1021.39 1021.34 1021.30 1021.27 1021.34 1021.27 1021.22 1020.98 1020.78 1020.66 1020.51 1020.47 1020.54 1020.51 1020.22 1019.83 1019.71 1019.71 1019.74 1019.98 1020.22 1020.15 1020.47 1020.86 1021.27 1021.51 1021.91 1022.39 1022.59 1022.95 1023.30 1023.62 1023.91 1024.34 1024.70
Wind_Speed
7 6 5 4 3 4 5 4 4 3 3 2 2 1 3 3 4 4 3 3 3 2 3 4 4 3 4 2 3 3 3 4 4 5 4 3 5 2 2 3 4 5 3 2 4 5 5 5 3 5 5 6 4 4 3 5 5 5 5 5 4 5 4
5 6 4 3 5 4 6 3 4 4 4 3 2 3 3 3 3 4 3 3 3 3 2 3 2 3 4 5 4 4 4 3 3 3 4 5 3 4 5 3 5 4 5 5 4 3 4 5 6 3 4 4 5 4 5 6 6 5 5 4 4 4 4
4 4 4 5 4 4 6 4 4 4 4 4 3 3 3 3 3 3 3 3 4 3 3 3 3 3 3 3 3 4 4 4 2 4 4 3 3 2 3 5 4 3 4 4 3 6 5 4 6 6 6 6 5 4 6 5 6 5 5 4 4 4 4
5 6 6 4 4 4 6 4 4 3 4 4 3 3 3 3 4 3 4 3 3 3 3 3 3 3 3 3 3 4 4 5 5 4 3 2 1 2 3 5 6 7 6 4 6 4 5 5 6 7 6 4 6 6 4 5 5 4 4 4 4 3 3
8 6 7 6 5 5 5 5 3 5 4 4 3 3 3 3 4 4 4 4 4 3 3 3 3 3 3 3 3 4 3 3 4 4 3 3 2 2 1 3 4 4 2 5 6 6 8 8 8 8 6 6 6 4 3 3 3 4 4 3 3 2 2
8 7 7 6 4 6 6 5 5 6 4 5 3 4 3 3 4 5 4 5 3 3 3 3 3 3 3 3 3 3 3 4 4 5 5 3 4 4 3 1 4 3 3 4 5 6 6 7 9 9 5 1 5 6 1 2 1 2 3 3 2 2 1
7 7 6 7 5 6 6 6 6 6 6 6 4 4 2 3 3 3 4 4 3 3 3 3 3 2 3 4 3 4 4 3 4 5 5 3 3 3 3 5 2 5 5 5 6 8 9 9 8 9 8 5 4 4 1 2 0 2 1 2 2 2 2
7 6 5 6 6 6 4 5 4 5 6 4 6 4 3 4 4 4 4 4 4 3 3 3 3 3 3 3 3 4 4 4 5 6 4 5 4 3 2 4 4 5 5 5 7 7 7 8 9 9 11 11 3 2 2 1 1 2 1 1 1 1 1
6 6 5 4 5 6 5 6 5 4 5 4 3 4 2 4 5 5 4 4 3 3 3 4 3 3 3 5 4 4 4 2 6 6 4 5 5 4 4 3 4 4 4 6 6 7 7 7 7 7 6 9 11 4 1 1 1 1 1 1 0 1 2
7 7 7 5 5 4 5 5 6 5 4 4 4 3 4 3 4 5 5 4 4 4 4 3 3 3 3 4 4 4 5 3 5 4 3 6 3 4 4 3 5 5 4 5 6 7 6 5 5 5 4 8 8 9 3 2 2 2 2 2 2 2 3
7 6 6 6 4 5 3 4 4 5 4 4 4 3 4 4 4 4 5 4 3 3 4 3 3 3 3 4 3 3 2 2 5 3 3 4 3 3 3 3 3 4 3 5 7 6 7 6 6 6 5 3 4 10 6 7 5 3 2 1 1 2 2
5 6 6 6 6 6 6 5 5 4 3 3 4 4 4 4 4 4 4 4 3 3 3 4 4 3 3 4 3 3 2 2 5 4 3 3 2 3 5 5 3 3 2 4 5 4 4 6 7 6 5 5 3 3 8 5 5 4 3 5 4 2 4
5 7 7 7 7 7 7 6 4 4 4 3 3 4 4 4 4 4 3 4 4 3 3 3 3 3 3 3 2 3 2 3 5 4 4 3 3 4 5 5 3 2 1 3 3 4 6 5 6 6 6 6 5 4 5 6 5 6 5 4 4 3 4
5 5 5 6 7 5 5 7 5 4 3 3 4 4 4 4 4 4 4 4 4 4 4 3 1 3 3 2 2 2 2 3 5 2 4 4 3 4 4 4 3 2 1 4 3 3 2 3 5 6 6 6 6 5 5 4 5 3 1 1 2 3 3
0 2 4 4 5 6 6 6 4 4 4 3 3 4 4 3 3 3 4 3 3 3 3 2 2 2 3 2 1 2 2 3 3 2 3 4 3 3 4 5 4 4 3 5 4 3 2 1 3 5 6 7 7 7 4 4 2 4 6 0 1 1 3
2 3 4 4 3 4 6 6 4 5 4 4 3 5 5 4 4 4 3 3 3 2 2 2 1 2 2 2 1 0 0 2 3 3 3 2 2 2 5 5 3 2 2 4 3 2 3 3 2 2 3 3 6 7 6 4 4 2 6 4 2 3 3
3 5 6 6 6 5 5 5 4 4 4 4 5 4 5 5 4 4 4 3 3 3 2 1 1 1 2 3 2 1 1 1 1 2 3 3 2 3 4 4 2 3 3 4 3 3 2 3 3 4 4 3 3 4 3 2 1 5 3 5 3 5 4
5 5 5 4 6 5 5 6 5 5 4 4 4 4 3 4 5 4 5 4 3 3 3 3 2 1 1 2 3 2 1 1 2 2 3 3 4 4 3 4 4 3 3 4 2 3 2 3 3 4 5 4 5 4 3 3 3 3 6 6 4 2 2
4 3 2 4 6 6 6 6 6 4 5 6 4 4 4 2 3 4 4 4 4 4 3 4 4 4 3 2 2 2 1 1 2 2 2 2 1 1 2 1 1 3 4 4 1 1 1 3 2 3 4 3 4 4 4 3 3 4 5 6 6 4 1
6 4 4 3 1 1 4 5 5 6 5 5 5 4 4 4 3 4 4 4 4 4 4 4 4 4 3 3 4 3 2 1 1 2 3 2 1 0 0 1 1 1 3 3 4 3 3 2 3 3 3 4 3 4 4 4 4 5 5 4 1 1 3
7 6 4 3 1 1 2 3 4 4 4 4 5 5 5 4 4 3 4 4 4 3 3 3 3 4 4 4 4 4 4 3 2 1 2 1 1 2 1 2 2 3 3 4 4 4 4 4 2 4 2 3 4 4 4 4 4 5 5 4 3 3 1
7 7 5 4 2 1 1 1 1 2 3 4 4 4 4 4 4 3 3 4 4 4 4 5 4 4 4 4 4 4 4 4 4 3 2 1 1 1 2 2 3 3 3 4 6 6 6 5 5 3 1 3 4 4 3 4 5 5 4 5 2 2 3
3 7 8 6 3 3 4 4 3 3 3 4 4 4 4 4 5 6 5 4 4 4 5 4 6 9 8 6 6 5 4 4 5 4 5 4 3 3 3 3 2 5 6 7 7 7 7 7 4 4 7 5 5 4 5 4 4 6 6 6 6 6 4
5 5 7 5 5 4 4 4 4 3 2 2 1 1 4 4 4 4 5 5 5 6 6 5 9 10 11 10 6 5 6 6 4 5 5 6 6 5 4 4 3 3 4 5 5 8 8 9 8 5 6 7 6 7 6 4 4 5 6 6 4 4 6
5 5 5 4 3 3 3 4 4 3 4 4 2 2 3 3 3 4 4 4 5 6 6 7 11 11 12 12 9 7 6 6 5 6 6 6 6 5 6 5 4 3 3 4 4 5 6 6 5 6 7 7 7 5 4 6 6 2 3 5 5 6 6
7 7 5 5 5 5 6 6 6 6 6 3 3 4 2 3 3 1 3 4 3 1 1 1 5 9 11 12 13 9 6 6 7 7 6 6 6 6 5 5 5 4 4 6 5 4 5 4 4 5 7 7 4 4 5 4 3 5 7 5 6 6 6
9 8 7 7 7 6 6 5 4 3 2 3 4 4 4 3 3 2 1 1 1 1 2 3 5 5 5 6 7 5 4 5 6 6 6 7 6 6 6 7 6 6 5 5 4 4 4 4 4 4 4 3 4 4 4 3 5 6 6 7 8 8 5
9 8 8 9 9 9 8 6 5 3 3 3 3 3 2 2 2 3 2 1 1 2 4 3 5 7 6 6 4 2 3 2 3 4 5 5 6 7 7 7 7 7 6 6 6 6 6 6 5 5 4 3 3 2 2 3 2 3 4 3 5 5 7
9 8 8 9 10 9 8 7 7 5 3 3 2 2 3 2 2 4 4 3 3 5 4 5 6 7 8 9 6 4 4 5 5 5 5 5 6 6 5 5 6 6 6 6 8 11 9 6 6 6 4 3 3 2 1 3 5 4 2 4 5 7 7
9 9 8 10 9 8 7 8 7 5 6 6 6 6 5 4 3 3 3 3 3 4 5 5 6 8 8 7 4 4 5 5 6 6 7 6 6 5 5 5 5 6 5 6 8 11 11 10 6 6 5 5 2 2 3 6 9 6 5 7 10 11 11
9 8 9 9 7 5 5 4 6 5 6 6 7 6 5 6 6 6 5 6 4 4 6 5 6 9 8 7 6 5 5 5 6 6 7 5 5 5 6 9 8 6 6 7 9 12 13 11 6 6 6 6 5 5 3 4 5 5 7 12 13 13 12
8 8 8 7 7 7 7 6 4 4 6 5 5 4 6 6 6 7 7 5 7 6 5 7 7 8 8 7 5 5 5 5 5 7 6 7 6 6 6 6 9 9 8 8 10 12 14 12 7 8 9 8 6 5 7 7 8 6 4 6 5 7 6
8 8 7 6 6 6 5 6 7 6 5 5 5 6 6 7 7 7 6 7 7 6 7 7 6 9 9 9 8 5 4 4 7 9 8 7 7 7 7 7 7 10 12 11 11 13 14 15 10 9 8 9 9 9 7 6 5 6 4 5 4 4 5
8 8 6 5 4 5 6 6 6 7 7 6 6 7 7 6 6 7 6 6 6 6 7 9 9 11 7 9 8 7 5 7 7 7 6 6 6 7 8 8 8 9 12 12 12 12 13 15 13 11 10 10 11 9 11 7 6 8 7 5 4 5 5
6 6 6 7 7 7 6 6 6 6 5 6 7 6 5 5 5 5 5 5 5 7 7 10 9 13 11 4 7 10 7 8 7 5 6 6 6 6 9 9 8 9 12 12 14 12 13 16 16 11 11 9 10 15 13 7 7 6 6 7 6 5 6
7 6 7 7 7 8 7 8 8 8 8 8 8 8 8 8 7 7 7 7 7 7 8 9 10 10 13 10 5 9 12 10 8 5 6 7 7 8 5 7 9 11 11 11 12 14 15 17 15 9 13 12 14 16 12 7 6 7 6 6 7 6 6
7 7 8 7 7 8 8 7 6 6 6 6 6 5 6 5 5 5 6 6 6 6 7 8 9 8 9 12 10 7 8 9 9 6 5 5 5 5 5 5 8 12 11 12 13 15 16 15 11 14 15 15 16 14 9 8 7 7 6 7 7 6 5
Wind_Direction
148 154 148 126 105 125 101 104 106 88 68 79 99 68 115 141 127 121 131 140 133 140 143 152 169 158 126 119 158 164 156 170 164 154 181 181 150 205 34 72 79 88 86 99 128 142 115 122 103 71 66 80 78 71 76 81 72 66 66 57 58 57 52
136 136 120 103 108 106 98 81 95 94 83 68 73 86 82 121 135 137 130 118 99 92 108 113 109 129 140 143 141 146 156 168 170 167 146 191 147 172 113 61 71 65 73 71 92 75 124 131 112 106 107 79 75 62 64 58 54 49 52 55 63 56 50
117 105 110 111 111 110 105 98 101 97 95 66 46 40 58 66 112 116 109 101 95 79 78 97 100 94 106 126 154 152 154 131 140 152 169 170 191 130 113 147 114 94 68 65 64 103 65 37 126 127 116 124 116 76 65 54 48 44 46 45 51 46 44
143 136 118 104 109 106 115 127 123 104 84 86 65 41 52 73 91 101 104 92 76 74 89 93 107 118 129 128 128 122 133 139 144 131 104 119 128 118 121 144 154 158 162 164 169 160 137 130 118 105 99 106 103 88 53 54 58 51 53 44 50 47 52
148 145 142 145 149 132 130 122 106 87 75 72 67 63 43 68 95 91 86 81 80 83 86 96 99 106 110 105 98 105 105 107 119 116 122 118 110 99 124 140 143 137 131 146 168 143 138 142 133 132 132 122 98 91 97 82 62 67 47 44 39 47 42
146 145 142 143 155 134 133 123 115 113 113 89 83 89 56 77 110 110 105 107 100 92 102 93 89 95 102 96 105 96 106 118 133 127 123 149 155 158 173 152 146 129 135 149 126 118 105 126 134 130 109 65 121 123 136 101 66 41 90 66 61 43 34
144 142 145 143 155 141 141 139 139 144 140 143 141 128 143 91 82 97 106 98 99 103 96 91 87 90 96 101 105 103 102 121 115 114 122 127 114 133 141 122 133 122 136 139 127 126 134 137 140 133 123 99 96 118 83 52 57 74 13 41 63 52 34
135 132 140 145 147 140 141 131 136 138 136 158 144 161 127 102 103 102 112 115 119 115 108 92 75 70 73 77 76 93 87 104 105 108 109 121 121 129 128 139 121 113 136 141 131 133 141 147 144 149 137 131 94 50 40 44 19 76 182 336 86 66 40
124 118 116 131 145 144 152 143 151 150 145 141 145 128 128 116 119 116 112 121 128 128 117 117 106 91 78 86 73 83 85 63 100 91 102 96 97 105 113 108 104 132 146 140 133 138 141 144 141 149 144 130 133 122 34 54 5 0 156 120 329 175 166
126 132 140 149 151 154 147 150 146 156 142 139 148 139 125 104 114 126 126 131 137 133 115 109 102 84 74 89 102 100 97 72 88 97 104 96 102 103 92 112 131 132 145 136 131 133 136 129 136 143 156 148 144 129 140 162 248 178 252 166 148 248 187
134 134 140 146 152 137 130 123 122 133 155 158 145 148 128 115 105 115 124 128 131 115 119 99 91 78 78 68 72 75 84 101 92 71 56 100 100 103 99 83 95 109 123 135 144 142 140 148 147 159 156 128 157 140 158 154 212 208 208 241 176 173 222
124 132 143 150 157 156 152 145 153 152 133 138 133 130 121 110 108 110 121 125 111 110 101 108 101 81 82 85 64 81 49 79 91 74 21 57 55 68 77 69 50 82 94 121 119 129 136 149 162 163 167 151 183 143 140 125 137 242 160 198 246 230 178
135 148 156 161 168 169 160 142 136 144 168 154 148 135 128 124 125 123 115 116 109 99 103 94 99 104 84 82 84 83 47 80 84 84 60 37 59 66 78 74 54 88 98 108 108 127 156 164 164 171 174 175 164 151 142 134 141 185 210 186 213 228 171
151 159 156 171 169 167 144 133 158 162 127 158 145 129 128 130 135 138 133 137 135 133 128 122 86 104 96 81 46 55 47 69 90 63 80 56 45 74 76 78 53 28 39 101 85 70 85 152 177 186 178 166 161 164 146 125 130 154 142 188 184 198 152
99 149 159 182 167 149 136 140 149 138 165 171 152 134 129 127 127 130 130 132 131 132 133 125 92 88 97 85 47 33 59 72 81 77 76 76 53 69 82 73 51 46 66 90 88 89 111 125 176 166 176 175 171 179 182 113 142 143 186 221 118 18 140
130 157 150 165 138 135 145 142 148 162 167 166 168 149 148 141 137 130 118 124 133 138 138 125 84 102 106 120 125 58 52 113 126 129 112 110 88 88 79 82 61 63 89 82 65 84 104 120 140 184 184 181 176 173 181 141 126 138 163 206 174 152 192
156 167 166 168 155 156 155 144 147 167 170 168 165 166 154 147 139 136 132 130 153 160 131 108 95 121 156 148 154 173 165 174 162 169 166 160 146 115 129 101 95 108 96 87 73 76 74 103 119 135 145 136 149 170 167 131 111 133 157 154 225 183 188
162 182 180 177 153 155 153 149 162 173 166 182 177 161 172 150 140 136 143 151 158 170 166 148 157 183 185 168 163 168 190 224 219 211 208 189 171 152 148 140 159 135 99 88 56 84 102 106 127 133 140 148 147 154 123 125 129 118 136 168 189 233 180
136 130 132 164 161 162 166 166 173 182 177 174 181 170 165 165 146 151 153 163 171 180 162 162 172 185 173 163 162 164 162 220 254 254 251 248 203 134 124 136 142 132 120 121 143 90 100 129 122 119 122 130 140 137 133 117 117 128 145 165 162 166 183
128 70 55 24 4 191 181 174 174 184 187 173 170 177 179 172 175 162 183 168 175 178 181 173 175 177 171 168 163 154 151 198 232 258 271 281 288 102 116 137 175 163 139 143 151 162 141 120 123 120 136 143 140 132 134 136 127 131 146 135 109 155 134
126 128 108 82 78 251 249 213 199 188 166 177 177 178 178 188 189 172 187 192 191 176 188 195 185 190 190 179 154 163 176 176 177 209 244 266 287 277 231 182 201 203 185 172 163 174 161 152 132 117 115 121 132 131 141 133 126 137 144 158 145 151 82
140 128 126 129 90 52 106 90 91 116 171 186 191 188 186 177 165 191 216 218 205 182 190 211 202 186 192 201 166 173 184 182 175 180 191 218 246 263 268 225 199 211 214 198 181 173 182 167 148 142 188 132 128 131 128 138 153 146 151 155 124 78 106
118 135 132 141 133 141 152 173 152 127 148 184 193 190 183 177 181 185 196 218 219 201 212 219 221 208 198 190 185 188 185 194 191 184 182 192 224 243 239 241 223 215 212 199 187 184 185 188 196 168 168 164 148 134 142 142 159 169 162 171 180 150 137
119 116 124 135 152 143 115 101 87 86 88 95 119 172 159 171 185 182 185 190 204 211 216 218 219 215 218 212 187 185 190 201 203 198 190 186 199 214 233 229 228 217 201 210 206 201 198 194 185 165 165 175 177 156 146 150 174 167 169 183 159 151 166
54 57 63 54 37 48 85 84 86 92 99 86 62 82 91 134 141 147 152 174 199 210 213 218 205 210 214 213 202 193 194 195 199 208 208 205 206 203 215 224 226 206 189 205 206 207 214 212 207 186 175 179 188 198 183 167 161 175 174 148 165 188 165
68 52 41 64 67 58 59 56 37 31 19 10 60 63 43 53 55 68 128 150 188 221 267 285 225 225 217 209 204 195 195 197 195 208 212 214 209 208 214 221 233 234 223 206 199 202 199 196 170 164 164 151 143 183 204 203 208 188 169 161 166 179 182
66 61 54 51 57 54 54 52 61 48 41 21 40 34 13 27 18 29 23 6 312 249 218 196 196 230 249 243 230 217 211 201 209 210 213 214 216 215 212 209 216 229 233 219 202 189 187 187 181 169 172 140 126 116 114 164 178 156 175 175 163 176 202
62 60 57 57 57 51 48 42 42 20 38 41 55 63 66 28 325 321 317 303 272 280 281 244 207 212 227 238 243 248 265 266 241 245 244 241 235 231 224 219 214 220 221 221 213 189 180 184 182 192 157 103 66 34 52 72 103 150 155 148 168 151 149
53 51 54 58 57 50 46 44 36 13 32 32 48 66 35 37 344 321 316 341 329 297 289 265 234 224 222 224 202 205 229 237 237 237 241 235 238 240 241 226 222 224 221 223 226 196 192 169 176 184 152 110 95 85 37 342 311 258 195 167 152 143 148
50 48 47 51 49 45 39 28 30 21 42 31 33 25 16 358 337 336 334 334 317 297 297 292 265 257 244 223 185 225 227 233 236 239 240 236 235 239 235 226 219 224 225 230 223 197 193 169 184 182 153 152 142 109 38 13 9 19 95 113 118 122 123
47 45 45 45 43 43 44 45 34 17 40 31 31 13 1 15 12 6 356 337 329 305 298 288 261 258 259 248 228 228 225 226 244 243 253 253 248 247 243 235 226 222 225 230 218 197 193 179 183 166 160 151 145 127 84 65 50 17 48 82 85 86 88
45 42 45 39 37 34 31 33 23 28 36 38 37 16 23 34 28 24 12 356 342 338 315 316 310 273 266 253 236 256 239 221 245 252 249 257 252 248 259 253 240 234 227 228 211 201 192 186 176 166 167 153 156 174 184 164 142 131 131 94 79 88 66
48 47 44 42 37 39 28 33 27 33 32 37 36 33 31 30 30 18 10 9 5 357 346 336 324 296 265 255 233 241 276 249 235 243 241 239 256 259 253 257 252 242 242 238 217 203 195 189 177 174 165 179 177 190 172 162 152 141 137 118 109 81 94
54 51 45 44 48 44 38 36 32 33 29 24 32 35 33 27 22 10 3 4 359 358 358 348 343 340 285 247 233 214 250 237 247 248 245 240 239 250 258 254 253 243 235 235 228 210 194 192 188 181 179 176 193 168 140 152 167 151 134 122 104 94 94
48 48 42 40 40 39 31 35 36 36 32 32 33 33 32 27 22 9 359 0 1 353 353 0 347 347 354 273 229 218 231 249 250 261 256 240 243 246 246 251 252 246 236 233 228 211 196 195 191 186 196 184 137 134 150 152 142 128 118 115 112 103 104
38 35 32 30 36 31 22 25 25 26 25 25 25 21 15 14 11 5 0 357 355 352 350 347 359 341 339 337 270 219 229 243 275 291 261 250 241 247 262 264 258 254 243 238 224 211 202 198 196 177 159 159 154 145 135 136 133 123 116 113 110 108 115
32 30 26 23 27 27 21 20 23 26 22 29 22 22 12 9 9 9 355 339 343 345 340 339 337 342 332 328 321 287 256 250 253 259 291 307 325 317 298 288 297 299 259 237 226 216 209 196 187 182 166 153 148 146 135 132 126 120 114 109 113 122 124